This is the latest recevied weather packets stored in our database for station/object DL5ARK. If no packets are shown the sender has not sent any weather packets the latest 10 day(s).
| Time | Temp. | Humidity | Pressure | Rain* | Wind** | Luminosity | Snow |
|---|---|---|---|---|---|---|---|
| 1777814150 | 26.11° C | 34% | 1000.5 hPa | 0 mm | - | - | - |
| 1777813968 | 25.56° C | 35% | 1000.5 hPa | 0 mm | - | - | - |
| 1777813788 | 25.56° C | 33% | 1000.5 hPa | 0 mm | - | - | - |
| 1777813607 | 25.56° C | 34% | 1000.8 hPa | 0 mm | - | - | - |
| 1777813427 | 25.56° C | 34% | 1000.8 hPa | 0 mm | - | - | - |
| 1777813248 | 26.11° C | 35% | 1000.8 hPa | 0 mm | - | - | - |
| 1777812888 | 26.67° C | 34% | 1000.8 hPa | 0 mm | - | - | - |
| 1777812708 | 26.11° C | 34% | 1000.8 hPa | 0 mm | - | - | - |
| 1777812527 | 26.11° C | 34% | 1000.8 hPa | 0 mm | - | - | - |
| 1777812349 | 26.11° C | 35% | 1000.8 hPa | 0 mm | - | - | - |
| 1777812167 | 25.56° C | 33% | 1001 hPa | 0 mm | - | - | - |
| 1777811987 | 26.11° C | 33% | 1001 hPa | 0 mm | - | - | - |
| 1777811810 | 26.11° C | 32% | 1000.8 hPa | 0 mm | - | - | - |
| 1777811628 | 26.11° C | 35% | 1001 hPa | 0 mm | - | - | - |
| 1777811448 | 26.11° C | 33% | 1000.8 hPa | 0 mm | - | - | - |
| 1777811268 | 26.11° C | 35% | 1001 hPa | 0 mm | - | - | - |
| 1777811087 | 26.11° C | 34% | 1001 hPa | 0 mm | - | - | - |
| 1777810909 | 26.11° C | 37% | 1001.3 hPa | 0 mm | - | - | - |
| 1777810727 | 25.56° C | 34% | 1001.3 hPa | 0 mm | - | - | - |
| 1777810368 | 25.56° C | 35% | 1001 hPa | 0 mm | - | - | - |
| 1777810187 | 25.56° C | 37% | 1001.3 hPa | 0 mm | - | - | - |
| 1777810009 | 25.56° C | 35% | 1001.3 hPa | 0 mm | - | - | - |
| 1777809828 | 25.56° C | 37% | 1001.3 hPa | 0 mm | - | - | - |
| 1777809647 | 25.56° C | 35% | 1001.3 hPa | 0 mm | - | - | - |
| 1777809468 | 25° C | 33% | 1001.3 hPa | 0 mm | - | - | - |
* Rain latest hour (hover to see other rain measurements)
** Current wind speed in m/s (hover to see current wind gust speed)